Location: Wingville
(42.9917°N, 90.4915°W)
Time: 09:50:00
(UTC+00:00)

YUBILEINY - Pass Details

Date: 02 July 2022
Orbit: 1478 x 1509 km, 82.5° (Epoch: 07 August)

Event Time Altitude Azimuth Distance (km) Brightness Sun altitude
Rises 08:53:29 0° 357° (N) 4,651 ? -13.6°
Reaches altitude 10° 08:56:54 10° 7° (N) 3,662 ? -13.2°
Maximum altitude 09:04:29 31° 67° (ENE) 2,387 ? -12.3°
Drops below altitude 10° 09:11:58 10° 127° (SE) 3,627 ? -11.4°
Sets 09:15:18 0° 137° (SE) 4,599 ? -10.9°
